Location: Lecco
(45.8566°N, 9.3977°E)
Time: 06:20:32
(UTC+02:00)

A-11 Canister half - Pass Details

Date: 19 August 2020
Orbit: 1514 x 1686 km, 47.2° (Epoch: 21 September)

Event Time Altitude Azimuth Distance (km) Brightness Sun altitude
Rises 21:34:04 0° 288° (WNW) 4,781 13.3 -11.9°
Reaches altitude 10° 21:37:07 10° 287° (WNW) 3,817 12.4 -12.4°
Maximum altitude 21:46:51 74° 205° (SSW) 1,698 9.2 -13.8°
Enters shadow 21:54:41 19° 125° (SE) 3,260 10.0 -14.9°
